Location: Borowce
(50.8255°N, 19.6209°E)
Time: 08:12:46
(UTC+00:00)

Cosmos 2173 Rocket - Pass Details

Date: 19 May 2025
Orbit: 944 x 999 km, 83.0° (Epoch: 16 June)

Event Time Altitude Azimuth Distance (km) Brightness Sun altitude
Rises 23:09:37 0° 349° (NNW) 3,732 8.4 -18.9°
Reaches altitude 10° 23:12:10 10° 348° (NNW) 2,775 7.4 -18.8°
Maximum altitude 23:18:32 75° 264° (W) 1,025 4.0 -18.6°
Enters shadow 23:21:47 30° 185° (S) 1,672 4.6 -18.5°
